[[{"header":{"parameterUnit":"m.s-1","parameterCategory":1,"la1":30.2991,"la2":30.254,"lo1":-89.0895,"lo2":-89.0444,"dy":0.0017,"dx":0.0017,"nx":28,"ny":28,"refTime":"2023-10-22T09:00:00:Z","depth":0,"parameterNumber":2,"parameterNumberName":"U-component_of_WINDS"},"data":[0,0,0,0,0,0,0,0,0,0,0,0,0,0,0,0,0,0,0,0,0,0,0,0,0,0,0,0,0,0,0,0,0,0,0,0,0,0,0,0,0,0,0,0,0,0,0,0,0,0,0,0,0,0,0,0,0,0,1.1778,1.1778,0,1.1759,1.1759,1.1759,1.1671,1.1669,1.1667,1.1665,1.1646,1.1648,1.1649,0,0,0,0,0,0,0,0,0,0,0,0,0,1.1741,1.1742,1.1778,1.1778,1.1778,1.1759,1.1759,1.1759,1.1671,1.1669,1.1666,1.1664,1.1646,1.1647,1.1649,0,0,0,0,0,0,0,0,0,0,0,0,0,1.1743,1.1742,1.1778,1.1732,1.1727,1.1759,1.1759,1.1759,1.1672,1.1669,1.1665,1.1663,1.1645,1.1647,1.1649,1.1725,0,0,1.1656,1.1657,0,0,0,0,0,0,0,0,1.1743,1.1744,1.1739,1.1735,1.173,1.1714,1.1739,1.1747,1.1672,1.1693,1.1665,1.1661,1.1671,1.1671,1.1674,1.1724,1.1723,1.1656,1.1657,1.1658,1.1659,0,0,0,0,0,0,0,1.1743,1.1745,1.1771,1.1739,1.1733,1.1713,1.1709,1.174,1.17,1.1691,1.1684,1.1683,1.1668,1.1673,1.1673,1.1723,1.1656,1.1658,1.1659,1.166,1.1837,1.184,0,0,0,0,0,0,1.1749,1.1745,1.1771,1.177,1.1729,1.1716,1.1712,1.1722,1.1699,1.1693,1.1686,1.1679,1.167,1.1671,1.1672,1.1761,1.1658,1.166,1.1662,1.1834,1.1838,1.1842,0,0,0,0,0,0,1.1749,1.1752,1.1772,1.1756,1.1757,1.172,1.1732,1.1724,1.1728,1.1696,1.1688,1.1698,1.1668,1.1669,1.1713,1.1759,1.1661,1.1663,1.183,1.1835,1.184,1.1939,0,0,0,0,0,0,1.1748,1.1753,1.178,1.1757,1.1758,1.1812,1.1735,1.1726,1.1732,1.1723,1.1704,1.1698,1.1666,1.1711,1.1715,1.1761,1.1665,1.1826,1.1832,1.1838,1.1931,1.1947,1.196,0,0,0,0,0,1.1747,1.1808,1.1782,1.1785,1.1791,1.1815,1.1816,1.1777,1.1736,1.1764,1.1744,1.1699,1.1754,1.1716,1.1721,1.1767,1.1822,1.183,1.1838,1.1925,1.1944,1.196,0,0,0,0,0,0,1.1836,1.1804,1.1774,1.183,1.1826,1.18,1.1834,1.1797,1.1805,1.1796,1.1748,1.1745,1.1796,1.1786,1.1744,1.1841,1.1781,1.179,1.1845,1.1863,1.1877,1.1879,1.1667,0,0,0,0,0,1.1863,1.1884,1.1855,1.1907,1.1906,1.1871,1.188,1.185,1.1844,1.1842,1.1825,1.1822,1.1838,1.185,1.1863,1.193,1.1926,1.1964,1.1979,1.1991,1.1999,1.2036,1.2054,1.1867,1.1867,1.1867,0,0,1.1917,1.1902,1.1918,1.1924,1.1918,1.1943,1.187,1.1898,1.1916,1.1846,1.1887,1.1875,1.1868,1.1925,1.1949,1.1918,1.205,1.2,1.201,1.2012,1.2046,1.2064,1.208,1.1872,1.1871,1.187,0,0,1.2028,1.2019,1.2062,1.2058,1.2049,1.2026,1.2037,1.2017,1.2007,1.2047,1.1996,1.2018,1.2046,1.2044,1.2047,1.2163,1.2123,1.2168,1.2243,1.228,1.2295,1.2308,1.235,1.2366,1.2177,1.2177,1.2177,0,1.2097,1.2131,1.2089,1.2121,1.2127,1.2066,1.2111,1.2108,1.2105,1.2111,1.2076,1.2114,1.2104,1.2161,1.2189,1.2193,1.2205,1.217,1.2296,1.2308,1.232,1.236,1.2376,1.2183,1.2182,1.2181,1.2181,0,1.2217,1.2242,1.2278,1.2277,1.2287,1.2325,1.229,1.2305,1.2276,1.2257,1.2301,1.2288,1.2299,1.231,1.2281,1.2364,1.2345,1.2304,1.2243,1.2344,1.2381,1.2396,1.2191,1.2189,1.2187,1.2186,0,0,1.2381,1.236,1.2374,1.2374,1.2362,1.2381,1.2418,1.243,1.2444,1.2445,1.2476,1.2504,1.2467,1.247,1.2441,1.2473,1.2569,1.2428,1.2428,1.2456,1.2661,1.2693,1.2711,1.2542,1.2545,1.2547,1.2662,0,1.2489,1.255,1.2515,1.2582,1.2606,1.2551,1.2584,1.2581,1.2565,1.2584,1.2566,1.2588,1.2536,1.2538,1.2568,1.2551,1.2609,1.2542,1.2572,1.2574,1.2576,1.273,1.2763,1.2872,1.2676,1.2679,1.2681,0,1.2622,1.263,1.27,1.2687,1.2695,1.2725,1.2735,1.2753,1.275,1.2736,1.2742,1.2706,1.2743,1.2684,1.2735,1.2691,1.2701,1.2695,1.2698,1.27,1.2633,1.2737,1.2905,1.2922,1.2703,1.2701,1.2699,0,1.2737,1.2765,1.2811,1.2813,1.2798,1.2821,1.2816,1.281,1.282,1.2829,1.2836,1.2849,1.2856,1.2867,1.2837,1.2795,1.2894,1.283,1.2885,1.2886,1.2907,1.2907,1.3081,1.2914,1.2913,1.2913,1.2913,0,1.2861,1.2906,1.2863,1.2892,1.2942,1.2903,1.2954,1.2943,1.2939,1.2965,1.2918,1.2944,1.2902,1.2924,1.2901,1.2949,1.2952,1.2943,1.2936,1.2948,1.2949,1.2954,1.2946,1.2917,1.2916,1.2915,1.2915,0,1.2997,1.297,1.3017,1.3001,1.2998,1.3036,1.3022,1.3048,1.3031,1.3065,1.3071,1.3043,1.3068,1.3039,1.306,1.3044,1.311,1.3092,1.3111,1.3106,1.3163,1.3159,1.3347,1.3371,1.3188,1.3189,1.3191,0,1.3078,1.3112,1.31,1.3115,1.3113,1.3137,1.3148,1.3112,1.3125,1.3127,1.3154,1.3174,1.3189,1.3231,1.3213,1.323,1.3213,1.3278,1.3215,1.3226,1.3215,1.3214,1.3218,1.3291,1.3293,1.3295,1.3296,0,1.3225,1.3211,1.3228,1.3243,1.3258,1.3267,1.3272,1.3287,1.325,1.3268,1.3293,1.3305,1.3328,1.335,1.3363,1.3359,1.3323,1.3316,1.333,1.3342,1.3353,1.3349,1.3147,1.3312,1.331,1.3309,1.3308,1.3308,1.3336,1.3365,1.3362,1.3384,1.3386,1.3393,1.3418,1.3405,1.3425,1.3442,1.342,1.3452,1.3451,1.3464,1.3465,1.349,1.3463,1.3482,1.3487,1.3493,1.3502,1.3349,1.3492,1.3492,1.3492,1.3491,1.3491,0,1.3482,1.3478,1.3499,1.351,1.3528,1.3493,1.3499,1.3517,1.3546,1.3548,1.3564,1.3595,1.3617,1.3603,1.3622,1.3645,1.3629,1.3652,1.365,1.365,1.3525,1.3512,1.3665,1.3665,1.3664,1.3664,1.3664,1.3664,1.3559,1.3607,1.3594,1.3643,1.3639,1.367,1.3677,1.3685,1.3687,1.3724,1.3742,1.3733,1.373,1.3749,1.3768,1.3764,1.3774,1.3802,1.3792,1.3675,1.3658,1.3642,1.3629,1.3805,1.3805,1.3915,1.3916,1.3917]},{"header":{"parameterUnit":"m.s-1","parameterCategory":1,"la1":30.2991,"la2":30.254,"lo1":-89.0895,"lo2":-89.0444,"dy":0.0017,"dx":0.0017,"nx":28,"ny":28,"refTime":"2023-10-22T09:00:00:Z","depth":0,"parameterNumber":3,"parameterNumberName":"V-component_of_WINDS"},"data":[0,0,0,0,0,0,0,0,0,0,0,0,0,0,0,0,0,0,0,0,0,0,0,0,0,0,0,0,0,0,0,0,0,0,0,0,0,0,0,0,0,0,0,0,0,0,0,0,0,0,0,0,0,0,0,0,0,0,-0.346,-0.3461,0,-0.3541,-0.3541,-0.3542,-0.3611,-0.3612,-0.3613,-0.3613,-0.37,-0.3701,-0.3703,0,0,0,0,0,0,0,0,0,0,0,0,0,-0.3369,-0.3371,-0.346,-0.3461,-0.3462,-0.354,-0.3541,-0.3543,-0.3611,-0.3612,-0.3613,-0.3614,-0.3699,-0.3701,-0.3703,0,0,0,0,0,0,0,0,0,0,0,0,0,-0.3425,-0.3371,-0.346,-0.3505,-0.351,-0.354,-0.3542,-0.3543,-0.3611,-0.3612,-0.3613,-0.3614,-0.3699,-0.3701,-0.3703,-0.3696,0,0,-0.3711,-0.3712,0,0,0,0,0,0,0,0,-0.3422,-0.3428,-0.3498,-0.3502,-0.3508,-0.3567,-0.3541,-0.3594,-0.361,-0.3573,-0.3613,-0.3615,-0.3655,-0.3661,-0.3674,-0.37,-0.3703,-0.3711,-0.3712,-0.3713,-0.3714,0,0,0,0,0,0,0,-0.3418,-0.3425,-0.3492,-0.3499,-0.3505,-0.3523,-0.3532,-0.3552,-0.3607,-0.3576,-0.3581,-0.359,-0.3658,-0.3671,-0.3676,-0.3705,-0.3711,-0.3713,-0.3714,-0.3715,-0.3728,-0.3727,0,0,0,0,0,0,-0.3406,-0.3422,-0.349,-0.3495,-0.3467,-0.3524,-0.3534,-0.3547,-0.3607,-0.3617,-0.3589,-0.3593,-0.3667,-0.3673,-0.368,-0.3674,-0.3713,-0.3716,-0.3717,-0.3729,-0.3728,-0.3726,0,0,0,0,0,0,-0.3404,-0.3412,-0.3486,-0.3459,-0.347,-0.3524,-0.3538,-0.3548,-0.3561,-0.3616,-0.3627,-0.3592,-0.3668,-0.3676,-0.3691,-0.3678,-0.3717,-0.3719,-0.373,-0.3728,-0.3727,-0.3662,0,0,0,0,0,0,-0.3401,-0.3411,-0.3407,-0.3459,-0.3471,-0.3495,-0.3537,-0.3549,-0.3565,-0.3571,-0.3622,-0.3631,-0.3669,-0.3687,-0.3693,-0.3682,-0.3721,-0.3732,-0.3729,-0.3727,-0.3666,-0.3658,-0.3652,0,0,0,0,0,-0.3398,-0.3387,-0.3407,-0.3415,-0.3468,-0.3494,-0.3501,-0.3544,-0.3563,-0.3561,-0.3596,-0.363,-0.3678,-0.3688,-0.3695,-0.3684,-0.3733,-0.373,-0.3728,-0.3669,-0.366,-0.3652,0,0,0,0,0,0,-0.3335,-0.3395,-0.3417,-0.3423,-0.3452,-0.3505,-0.3504,-0.3533,-0.3559,-0.3564,-0.3617,-0.3628,-0.3636,-0.3662,-0.3672,-0.368,-0.371,-0.3709,-0.3662,-0.3654,-0.3648,-0.3641,-0.3723,0,0,0,0,0,-0.3321,-0.3335,-0.3388,-0.3388,-0.3401,-0.3449,-0.3462,-0.3492,-0.3526,-0.3539,-0.3576,-0.3608,-0.363,-0.3644,-0.3668,-0.367,-0.3682,-0.3666,-0.366,-0.3654,-0.3652,-0.3654,-0.3648,-0.3718,-0.3718,-0.3718,0,0,-0.3294,-0.3328,-0.3334,-0.3376,-0.3402,-0.3417,-0.346,-0.3474,-0.3485,-0.3542,-0.3557,-0.3584,-0.3624,-0.3632,-0.3637,-0.3654,-0.3635,-0.3651,-0.3645,-0.3647,-0.3651,-0.3644,-0.3638,-0.3716,-0.3717,-0.3717,0,0,-0.3251,-0.3278,-0.3281,-0.3306,-0.3345,-0.3377,-0.3377,-0.3426,-0.3446,-0.3461,-0.3504,-0.3519,-0.3557,-0.3583,-0.3601,-0.3567,-0.3598,-0.3573,-0.3538,-0.3539,-0.3534,-0.3529,-0.3516,-0.3511,-0.3571,-0.3571,-0.3571,0,-0.3212,-0.3234,-0.3279,-0.3289,-0.3306,-0.3356,-0.3359,-0.3382,-0.3427,-0.3438,-0.3456,-0.3503,-0.3534,-0.3548,-0.3539,-0.3552,-0.3555,-0.3567,-0.3531,-0.3527,-0.3523,-0.3511,-0.3506,-0.3568,-0.3568,-0.3569,-0.3569,0,-0.3184,-0.3199,-0.3197,-0.3236,-0.3253,-0.326,-0.3306,-0.3318,-0.3346,-0.3377,-0.3392,-0.343,-0.3462,-0.3468,-0.3497,-0.3486,-0.3494,-0.3521,-0.3552,-0.3512,-0.3501,-0.3497,-0.3563,-0.3564,-0.3565,-0.3566,0,0,-0.3104,-0.3168,-0.3166,-0.3184,-0.323,-0.3243,-0.3252,-0.3282,-0.329,-0.332,-0.3329,-0.3359,-0.3383,-0.3404,-0.3436,-0.3437,-0.3406,-0.3464,-0.3466,-0.3451,-0.3396,-0.3375,-0.3369,-0.3428,-0.3427,-0.3427,-0.3392,0,-0.3068,-0.3085,-0.3125,-0.3131,-0.3145,-0.3192,-0.32,-0.323,-0.3258,-0.3275,-0.3308,-0.3328,-0.3359,-0.3371,-0.3375,-0.3409,-0.3396,-0.3413,-0.3437,-0.3437,-0.3424,-0.3364,-0.3342,-0.3307,-0.3389,-0.3388,-0.3387,0,-0.3029,-0.3053,-0.3059,-0.3103,-0.311,-0.3116,-0.3146,-0.3162,-0.3196,-0.3217,-0.3239,-0.3274,-0.3287,-0.3316,-0.3334,-0.3344,-0.3357,-0.3375,-0.3375,-0.3379,-0.3409,-0.3364,-0.3298,-0.3292,-0.3382,-0.3382,-0.3383,0,-0.2968,-0.3002,-0.301,-0.3025,-0.3077,-0.308,-0.3102,-0.3138,-0.3152,-0.3179,-0.3189,-0.3217,-0.3232,-0.3254,-0.3295,-0.3313,-0.3309,-0.3342,-0.3327,-0.3325,-0.3323,-0.3323,-0.3256,-0.3333,-0.3333,-0.3333,-0.3333,0,-0.2923,-0.2925,-0.2983,-0.2988,-0.2991,-0.3037,-0.304,-0.3067,-0.3098,-0.3109,-0.3153,-0.3163,-0.3218,-0.3234,-0.3268,-0.3277,-0.3284,-0.3302,-0.331,-0.3297,-0.3295,-0.3306,-0.3309,-0.3332,-0.3332,-0.3332,-0.3332,0,-0.2856,-0.2895,-0.2906,-0.2954,-0.2966,-0.2966,-0.3008,-0.3015,-0.3045,-0.3059,-0.3065,-0.3114,-0.3136,-0.3179,-0.3214,-0.3236,-0.3238,-0.3254,-0.3225,-0.323,-0.3212,-0.3213,-0.315,-0.3144,-0.3224,-0.3224,-0.3223,0,-0.2824,-0.2826,-0.2873,-0.2883,-0.2902,-0.2918,-0.2933,-0.2978,-0.2992,-0.3031,-0.3033,-0.3058,-0.308,-0.3112,-0.3151,-0.3178,-0.3194,-0.317,-0.3198,-0.3184,-0.3192,-0.3191,-0.3191,-0.3163,-0.3162,-0.3161,-0.3161,0,-0.2763,-0.2782,-0.2801,-0.2825,-0.2841,-0.2864,-0.2889,-0.2894,-0.2946,-0.2959,-0.2981,-0.2998,-0.3031,-0.3055,-0.3087,-0.3112,-0.3144,-0.3151,-0.3149,-0.3135,-0.3118,-0.3126,-0.3207,-0.3152,-0.3153,-0.3154,-0.3154,-0.3155,-0.2712,-0.2715,-0.2748,-0.2768,-0.2791,-0.2812,-0.282,-0.2851,-0.287,-0.2899,-0.2926,-0.2945,-0.2979,-0.3025,-0.3047,-0.3063,-0.3079,-0.3076,-0.3075,-0.3074,-0.3067,-0.3116,-0.3069,-0.3069,-0.307,-0.307,-0.307,0,-0.2653,-0.2676,-0.2693,-0.2725,-0.274,-0.2768,-0.2797,-0.2808,-0.2823,-0.2852,-0.2872,-0.2896,-0.2919,-0.2959,-0.2986,-0.2991,-0.3007,-0.2996,-0.2996,-0.3001,-0.3052,-0.3051,-0.2983,-0.2983,-0.2983,-0.2983,-0.2983,-0.2983,-0.2623,-0.263,-0.2653,-0.2671,-0.2695,-0.2713,-0.2726,-0.2747,-0.277,-0.2794,-0.2813,-0.2838,-0.2872,-0.2901,-0.2923,-0.2935,-0.2942,-0.2926,-0.2943,-0.2989,-0.2998,-0.3005,-0.3004,-0.2928,-0.2928,-0.289,-0.289,-0.2889]}]]